Regional Weather Roundup
Issued by NWS Albany, NY

Home | Current Version | Previous Version | Text Only | Print | Product List | Glossary On
Versions: 1 2 3 4 5 6 7 8 9 10 11 12 13 14 15 16 17 18 19 20 21 22 23 24 25 26 27 28 29 30 31 32 33
000
ASUS41 KALY 221010
RWRALY

NEW YORK STATE HOURLY WEATHER ROUNDUP
NATIONAL WEATHER SERVICE ALBANY NY
600 AM EDT WED OCT 22 2014

NOTE: "FAIR" INDICATES FEW OR NO CLOUDS BELOW 12,000 FEET WITH NO
SIGNIFICANT WEATHER AND/OR NO OBSTRUCTIONS TO VISIBILITY.

NYZ032-033-038>043-046>054-057>066-NYZ062>081-221100-
EAST


CITY           SKY/WX    TMP DP  RH WIND       PRES   REMARKS
ALBANY         CLOUDY    50  45  83 N10       30.04R
GLENS FALLS    CLOUDY    49  44  83 N8        30.08R
POUGHKEEPSIE   CLOUDY    52  48  86 N9        29.96R
MONTGOMERY     LGT RAIN  51  48  89 NE15      29.94S
WHITE PLAINS   CLOUDY    54  51  90 N8        29.91R
ISLIP          CLOUDY    57  54  89 NE16G23   29.86S
NEW YORK CITY  TSTM      55  52  88 N13       29.89S
CENTRAL PARK   HVY RAIN  55  53  93 E6        29.93R FOG
$$

NYZ005>009-017-018-044>046-055-056-221100-
CENTRAL


CITY           SKY/WX    TMP DP  RH WIND       PRES   REMARKS
FULTON         CLOUDY    46  43  89 N9        30.10R
SYRACUSE       CLOUDY    46  44  95 N16       30.08R
ROME           CLOUDY    47  44  90 CALM      30.08R
ELMIRA         CLOUDY    48  46  93 N8        30.04R FOG
BINGHAMTON     LGT RAIN  47  45  93 N10       30.00R
MONTICELLO     CLOUDY    48  46  93 NE6       29.97R
$$

NYZ026>034-041>043-221100-
NORTH


CITY           SKY/WX    TMP DP  RH WIND       PRES   REMARKS
WATERTOWN      CLOUDY    46  36  68 NE15      30.14R
FORT DRUM      NOT AVBL
MASSENA        CLOUDY    45  36  70 NE16      30.20R
SARANAC LAKE   FOG       40  40 100 NE9       30.09R VSB 3/4 WCI  34
PLATTSBURGH    CLOUDY    44  42  93 N9        30.15R
$$

NYZ001>004-010>016-019>021-221100-
WEST


CITY           SKY/WX    TMP DP  RH WIND       PRES   REMARKS
NIAGARA FALLS  CLOUDY    45  39  79 N9        30.17R
BUFFALO        CLOUDY    45  40  82 N8        30.15R
DUNKIRK        CLOUDY    46  42  86 NE10      30.15R
JAMESTOWN      CLOUDY    41  39  93 N9        30.11R
WELLSVILLE     FOG       42  41  96 N8        30.08R VSB 1/2
ROCHESTER      CLOUDY    48  42  80 NE14      30.13R
PENN YAN       CLOUDY    46  44  93 N7        30.09R FOG
$$

             KEY
       WCI = WIND CHILL INDEX
       VSB = VISIBILITY
       HX  = HEAT INDEX
$$



USA.gov is the U.S. government's official web portal to all federal, state and local government web resources and services.